| time (UTC) | temp F | wind direction | speed MPH | gust MPH | rain 1hr in | rain 24hr in | rain mn in | humidity % | barometer mb |
| 20260508163529 | 53 | 91 | 1.0 | 4.0 | 0.00 | 0.00 | 0.00 | 76 | 1027.2 |
| 20260508162528 | 54 | 81 | 1.0 | 2.0 | 0.00 | 0.00 | 0.00 | 75 | 1027.2 |
| 20260508161523 | 54 | 66 | 1.0 | 4.0 | 0.00 | 0.00 | 0.00 | 75 | 1027.1 |
| 20260508160522 | 54 | 71 | 2.0 | 4.0 | 0.00 | 0.00 | 0.00 | 75 | 1027.3 |
| 20260508155517 | 54 | 68 | 2.0 | 4.0 | 0.00 | 0.00 | 0.00 | 75 | 1027.1 |
| 20260508154615 | 54 | 93 | 2.0 | 6.0 | 0.00 | 0.00 | 0.00 | 75 | 1027.2 |
| 20260508153612 | 54 | 116 | 1.0 | 4.0 | 0.00 | 0.00 | 0.00 | 75 | 1027.1 |
| 20260508152609 | 54 | 68 | 1.0 | 2.0 | 0.00 | 0.00 | 0.00 | 75 | 1027.1 |
| 20260508151606 | 54 | 93 | 1.0 | 4.0 | 0.00 | 0.00 | 0.00 | 75 | 1027.2 |
| 20260508150603 | 54 | 89 | 2.0 | 4.0 | 0.00 | 0.00 | 0.00 | 74 | 1027.2 |
| 20260508145600 | 54 | 68 | 1.0 | 4.0 | 0.00 | 0.00 | 0.00 | 74 | 1027.2 |
| 20260508144558 | 54 | 84 | 1.0 | 4.0 | 0.00 | 0.00 | 0.00 | 74 | 1027.2 |
| 20260508143554 | 54 | 71 | 2.0 | 4.0 | 0.00 | 0.00 | 0.00 | 74 | 1027.2 |
| 20260508142552 | 54 | 48 | 1.0 | 4.0 | 0.00 | 0.00 | 0.00 | 75 | 1027.3 |
| 20260508141547 | 54 | 70 | 2.0 | 4.0 | 0.00 | 0.00 | 0.00 | 75 | 1027.4 |
| 20260508140545 | 54 | 86 | 1.0 | 4.0 | 0.00 | 0.00 | 0.00 | 73 | 1027.3 |
| 20260508135542 | 54 | 77 | 1.0 | 4.0 | 0.00 | 0.00 | 0.00 | 74 | 1027.4 |
| 20260508134539 | 54 | 86 | 1.0 | 2.0 | 0.00 | 0.00 | 0.00 | 74 | 1027.4 |
| 20260508133536 | 53 | 90 | 2.0 | 4.0 | 0.00 | 0.00 | 0.00 | 75 | 1027.4 |
| 20260508132532 | 53 | 88 | 2.0 | 4.0 | 0.00 | 0.01 | 0.00 | 77 | 1027.4 |
| 20260508131528 | 53 | 87 | 2.0 | 4.0 | 0.00 | 0.01 | 0.00 | 76 | 1027.4 |
| 20260508130526 | 54 | 82 | 1.0 | 4.0 | 0.00 | 0.02 | 0.00 | 75 | 1027.5 |
| 20260508125522 | 54 | 97 | 1.0 | 4.0 | 0.00 | 0.04 | 0.00 | 74 | 1027.6 |
| 20260508124519 | 53 | 65 | 2.0 | 6.0 | 0.00 | 0.04 | 0.00 | 75 | 1027.5 |
| 20260508123518 | 53 | 82 | 2.0 | 6.0 | 0.00 | 0.05 | 0.00 | 75 | 1027.6 |
| 20260508122614 | 54 | 96 | 1.0 | 4.0 | 0.00 | 0.05 | 0.00 | 74 | 1027.5 |
| 20260508121611 | 53 | 95 | 2.0 | 4.0 | 0.00 | 0.06 | 0.00 | 73 | 1027.5 |
| 20260508120608 | 53 | 68 | 2.0 | 4.0 | 0.00 | 0.07 | 0.00 | 75 | 1027.5 |
| 20260508115606 | 52 | 71 | 1.0 | 4.0 | 0.00 | 0.07 | 0.00 | 76 | 1027.4 |
| 20260508114603 | 52 | 79 | 1.0 | 4.0 | 0.00 | 0.09 | 0.00 | 75 | 1027.5 |
| 20260508113600 | 54 | 103 | 1.0 | 6.0 | 0.00 | 0.13 | 0.00 | 73 | 1027.5 |
| 20260508112557 | 54 | 92 | 2.0 | 4.0 | 0.00 | 0.13 | 0.00 | 74 | 1027.5 |
| 20260508111554 | 53 | 79 | 2.0 | 4.0 | 0.00 | 0.15 | 0.00 | 74 | 1027.5 |
| 20260508110551 | 53 | 88 | 2.0 | 4.0 | 0.00 | 0.17 | 0.00 | 73 | 1027.5 |
| 20260508105549 | 53 | 85 | 2.0 | 4.0 | 0.00 | 0.20 | 0.00 | 75 | 1027.6 |
| 20260508104547 | 53 | 75 | 2.0 | 4.0 | 0.00 | 0.20 | 0.00 | 75 | 1027.5 |
| 20260508103542 | 52 | 69 | 1.0 | 4.0 | 0.00 | 0.22 | 0.00 | 76 | 1027.6 |
| 20260508102542 | 53 | 103 | 2.0 | 4.0 | 0.00 | 0.25 | 0.00 | 75 | 1027.5 |
| 20260508101537 | 52 | 79 | 2.0 | 4.0 | 0.00 | 0.26 | 0.00 | 76 | 1027.6 |
| 20260508100536 | 52 | 69 | 1.0 | 4.0 | 0.00 | 0.27 | 0.00 | 76 | 1027.6 |
| 20260508095531 | 52 | 88 | 1.0 | 4.0 | 0.00 | 0.28 | 0.00 | 76 | 1027.5 |
| 20260508094531 | 51 | 77 | 2.0 | 6.0 | 0.00 | 0.31 | 0.00 | 78 | 1027.6 |
| 20260508093525 | 51 | 85 | 1.0 | 4.0 | 0.00 | 0.31 | 0.00 | 79 | 1027.6 |
| 20260508092523 | 51 | 134 | 2.0 | 4.0 | 0.00 | 0.33 | 0.00 | 78 | 1027.5 |
| 20260508091520 | 51 | 47 | 1.0 | 4.0 | 0.00 | 0.33 | 0.00 | 78 | 1027.7 |
| 20260508090517 | 51 | 79 | 0.0 | 2.0 | 0.00 | 0.34 | 0.00 | 77 | 1027.6 |
| 20260508085617 | 51 | 114 | 2.0 | 6.0 | 0.00 | 0.35 | 0.00 | 78 | 1027.6 |
| 20260508084612 | 51 | 82 | 1.0 | 4.0 | 0.00 | 0.37 | 0.00 | 78 | 1027.5 |
| 20260508083608 | 51 | 95 | 1.0 | 4.0 | 0.00 | 0.38 | 0.00 | 78 | 1027.5 |
| 20260508082605 | 51 | 86 | 1.0 | 4.0 | 0.00 | 0.39 | 0.00 | 79 | 1027.4 |
| 20260508081603 | 51 | 71 | 1.0 | 4.0 | 0.00 | 0.39 | 0.00 | 80 | 1027.2 |
| 20260508080601 | 51 | 138 | 2.0 | 6.0 | 0.00 | 0.40 | 0.00 | 78 | 1027.3 |
| 20260508075558 | 51 | 88 | 2.0 | 4.0 | 0.00 | 0.40 | 0.00 | 78 | 1027.2 |
| 20260508074554 | 51 | 92 | 3.0 | 6.0 | 0.00 | 0.41 | 0.00 | 79 | 1027.1 |
| 20260508073552 | 51 | 80 | 3.0 | 8.0 | 0.00 | 0.44 | 0.00 | 78 | 1027.1 |
| 20260508072549 | 50 | 94 | 1.0 | 4.0 | 0.00 | 0.46 | 0.00 | 80 | 1027.0 |
| 20260508071546 | 49 | 88 | 3.0 | 4.0 | 0.00 | 0.47 | 0.00 | 81 | 1027.0 |
| 20260508070545 | 49 | 76 | 1.0 | 6.0 | 0.00 | 0.50 | 0.00 | 83 | 1027.0 |
| 20260508065540 | 48 | 85 | 1.0 | 2.0 | 0.00 | 0.52 | 0.00 | 85 | 1026.8 |
| 20260508064537 | 48 | 61 | 1.0 | 4.0 | 0.00 | 0.56 | 0.00 | 86 | 1026.8 |
| 20260508063534 | 48 | 38 | 1.0 | 4.0 | 0.00 | 0.59 | 0.00 | 86 | 1026.6 |
| 20260508062531 | 48 | 77 | 3.0 | 4.0 | 0.00 | 0.60 | 0.00 | 87 | 1026.5 |
| 20260508061531 | 47 | 80 | 1.0 | 4.0 | 0.00 | 0.63 | 0.00 | 87 | 1026.5 |
| 20260508060527 | 47 | 45 | 1.0 | 2.0 | 0.00 | 0.64 | 0.00 | 89 | 1026.6 |
| 20260508055524 | 47 | 45 | 0.0 | 2.0 | 0.00 | 0.65 | 0.00 | 91 | 1026.5 |
| 20260508054520 | 47 | 0.0 | 2.0 | 0.00 | 0.65 | 0.00 | 91 | 1026.3 | |
| 20260508053517 | 47 | 0.0 | 0.0 | 0.00 | 0.65 | 0.00 | 92 | 1026.2 | |
| 20260508052615 | 47 | 44 | 0.0 | 2.0 | 0.00 | 0.65 | 0.00 | 92 | 1026.3 |
| 20260508051612 | 46 | 0.0 | 0.0 | 0.00 | 0.65 | 0.00 | 92 | 1026.1 | |
| 20260508050609 | 46 | 0.0 | 2.0 | 0.00 | 0.65 | 0.00 | 92 | 1026.1 | |
| 20260508045606 | 46 | 68 | 1.0 | 2.0 | 0.00 | 0.65 | 0.00 | 93 | 1026.1 |
| 20260508044603 | 46 | 0.0 | 0.0 | 0.00 | 0.65 | 0.00 | 93 | 1026.0 | |
| 20260508043600 | 46 | 0.0 | 2.0 | 0.00 | 0.65 | 0.00 | 93 | 1025.9 | |
| 20260508042559 | 46 | 0.0 | 2.0 | 0.00 | 0.65 | 0.00 | 93 | 1026.0 | |
| 20260508041555 | 46 | 0.0 | 0.0 | 0.00 | 0.65 | 0.00 | 93 | 1025.9 | |
| 20260508040554 | 46 | 0.0 | 0.0 | 0.00 | 0.65 | 0.00 | 93 | 1025.9 | |
| 20260508035551 | 46 | 0.0 | 0.0 | 0.00 | 0.65 | 0.00 | 93 | 1025.9 | |
| 20260508034548 | 46 | 0.0 | 0.0 | 0.00 | 0.65 | 0.00 | 93 | 1025.8 | |
| 20260508033543 | 46 | 0.0 | 0.0 | 0.00 | 0.65 | 0.00 | 94 | 1025.8 | |
| 20260508032540 | 46 | 0.0 | 0.0 | 0.00 | 0.65 | 0.00 | 93 | 1025.7 | |
| 20260508031538 | 46 | 0.0 | 0.0 | 0.00 | 0.65 | 0.00 | 93 | 1025.6 | |
| 20260508030535 | 46 | 0.0 | 0.0 | 0.00 | 0.65 | 0.00 | 94 | 1025.6 | |
| 20260508025534 | 46 | 0.0 | 0.0 | 0.00 | 0.65 | 0.00 | 94 | 1025.6 | |
| 20260508024529 | 46 | 0.0 | 0.0 | 0.00 | 0.65 | 0.00 | 94 | 1025.6 | |
| 20260508023528 | 46 | 0.0 | 0.0 | 0.00 | 0.65 | 0.00 | 94 | 1025.6 | |
| 20260508022523 | 46 | 0.0 | 0.0 | 0.00 | 0.65 | 0.00 | 94 | 1025.6 | |
| 20260508021519 | 46 | 0.0 | 2.0 | 0.00 | 0.65 | 0.00 | 94 | 1025.6 | |
| 20260508020517 | 46 | 0.0 | 0.0 | 0.00 | 0.65 | 0.00 | 94 | 1025.6 | |
| 20260508015613 | 46 | 0.0 | 0.0 | 0.00 | 0.65 | 0.00 | 94 | 1025.6 | |
| 20260508014612 | 46 | 0.0 | 0.0 | 0.00 | 0.65 | 0.00 | 94 | 1025.6 | |
| 20260508013609 | 46 | 0.0 | 0.0 | 0.00 | 0.65 | 0.00 | 94 | 1025.6 | |
| 20260508012605 | 46 | 0.0 | 0.0 | 0.00 | 0.65 | 0.00 | 94 | 1025.7 | |
| 20260508011602 | 46 | 0.0 | 0.0 | 0.00 | 0.65 | 0.00 | 94 | 1025.4 | |
| 20260508010600 | 46 | 0.0 | 0.0 | 0.00 | 0.65 | 0.00 | 94 | 1025.5 | |
| 20260508005556 | 46 | 0.0 | 0.0 | 0.00 | 0.65 | 0.00 | 94 | 1025.6 | |
| 20260508004554 | 46 | 0.0 | 0.0 | 0.00 | 0.65 | 0.00 | 94 | 1025.6 | |
| 20260508003552 | 46 | 0.0 | 2.0 | 0.00 | 0.65 | 0.00 | 94 | 1025.6 | |
| 20260508002548 | 46 | 0.0 | 0.0 | 0.00 | 0.65 | 0.00 | 93 | 1025.5 | |
| 20260508001546 | 46 | 0.0 | 2.0 | 0.00 | 0.65 | 0.00 | 93 | 1025.5 | |
| 20260508000541 | 46 | 0.0 | 0.0 | 0.00 | 0.65 | 0.00 | 93 | 1025.5 | |
| 20260507235540 | 46 | 0.0 | 0.0 | 0.00 | 0.65 | 0.00 | 93 | 1025.6 | |
| 20260507234536 | 46 | 0.0 | 0.0 | 0.00 | 0.65 | 0.00 | 93 | 1025.5 | |
| 20260507233533 | 46 | 0.0 | 0.0 | 0.00 | 0.65 | 0.00 | 93 | 1025.5 | |
| 20260507232532 | 46 | 0.0 | 0.0 | 0.00 | 0.65 | 0.00 | 93 | 1025.5 | |
| 20260507231528 | 46 | 0.0 | 0.0 | 0.00 | 0.65 | 0.00 | 93 | 1025.7 | |
| 20260507230524 | 46 | 0.0 | 0.0 | 0.00 | 0.65 | 0.00 | 93 | 1025.7 | |
| 20260507225521 | 46 | 0.0 | 0.0 | 0.00 | 0.65 | 0.00 | 93 | 1025.6 | |
| 20260507224518 | 46 | 0.0 | 0.0 | 0.00 | 0.65 | 0.00 | 93 | 1025.5 | |
| 20260507223517 | 46 | 0.0 | 0.0 | 0.00 | 0.65 | 0.00 | 93 | 1025.6 | |
| 20260507222613 | 46 | 0.0 | 2.0 | 0.00 | 0.65 | 0.00 | 93 | 1025.7 | |
| 20260507221610 | 46 | 0.0 | 0.0 | 0.00 | 0.65 | 0.00 | 93 | 1025.6 | |
| 20260507220609 | 46 | 0.0 | 0.0 | 0.00 | 0.65 | 0.00 | 93 | 1025.5 | |
| 20260507215604 | 46 | 0.0 | 0.0 | 0.00 | 0.65 | 0.65 | 93 | 1025.4 | |
| 20260507214602 | 46 | 0.0 | 0.0 | 0.00 | 0.65 | 0.65 | 93 | 1025.3 | |
| 20260507213601 | 46 | 0.0 | 2.0 | 0.00 | 0.65 | 0.65 | 93 | 1025.3 | |
| 20260507212556 | 46 | 0.0 | 2.0 | 0.00 | 0.65 | 0.65 | 93 | 1025.3 | |
| 20260507211554 | 46 | 0.0 | 0.0 | 0.00 | 0.65 | 0.65 | 93 | 1025.4 | |
| 20260507210551 | 46 | 0.0 | 0.0 | 0.00 | 0.65 | 0.65 | 93 | 1025.3 | |
| 20260507205548 | 46 | 0.0 | 0.0 | 0.00 | 0.65 | 0.65 | 93 | 1025.3 | |
| 20260507204545 | 46 | 0.0 | 0.0 | 0.00 | 0.65 | 0.65 | 93 | 1025.2 | |
| 20260507203545 | 46 | 0.0 | 0.0 | 0.00 | 0.65 | 0.65 | 93 | 1025.2 | |
| 20260507202541 | 46 | 0.0 | 0.0 | 0.00 | 0.65 | 0.65 | 93 | 1025.0 | |
| 20260507201538 | 46 | 0.0 | 2.0 | 0.00 | 0.65 | 0.65 | 93 | 1024.9 | |
| 20260507200535 | 46 | 0.0 | 0.0 | 0.00 | 0.65 | 0.65 | 92 | 1025.0 | |
| 20260507195531 | 46 | 0.0 | 0.0 | 0.00 | 0.65 | 0.65 | 92 | 1025.0 | |
| 20260507194528 | 46 | 0.0 | 0.0 | 0.00 | 0.65 | 0.65 | 92 | 1024.7 | |
| 20260507193525 | 46 | 0.0 | 0.0 | 0.00 | 0.65 | 0.65 | 92 | 1024.6 | |
| 20260507192522 | 46 | 329 | 1.0 | 2.0 | 0.00 | 0.65 | 0.65 | 92 | 1024.6 |
| 20260507191519 | 46 | 0.0 | 0.0 | 0.00 | 0.65 | 0.65 | 92 | 1024.4 | |
| 20260507190614 | 46 | 0.0 | 2.0 | 0.00 | 0.65 | 0.65 | 92 | 1024.3 | |
| 20260507185611 | 46 | 0.0 | 0.0 | 0.00 | 0.65 | 0.65 | 92 | 1024.3 | |
| 20260507184608 | 47 | 0.0 | 2.0 | 0.00 | 0.65 | 0.65 | 91 | 1024.3 | |
| 20260507183607 | 47 | 0.0 | 0.0 | 0.00 | 0.65 | 0.65 | 91 | 1024.3 | |
| 20260507182602 | 47 | 0 | 0.0 | 2.0 | 0.00 | 0.65 | 0.65 | 91 | 1024.1 |
| 20260507181600 | 47 | 0 | 0.0 | 2.0 | 0.00 | 0.65 | 0.65 | 90 | 1024.0 |
| 20260507180559 | 47 | 345 | 0.0 | 2.0 | 0.00 | 0.66 | 0.65 | 90 | 1023.9 |
| 20260507175555 | 47 | 338 | 0.0 | 2.0 | 0.00 | 0.66 | 0.65 | 89 | 1023.9 |
| 20260507174551 | 47 | 343 | 0.0 | 2.0 | 0.00 | 0.67 | 0.65 | 89 | 1023.9 |
| 20260507173548 | 47 | 113 | 0.0 | 2.0 | 0.00 | 0.70 | 0.65 | 89 | 1023.6 |
| 20260507172547 | 47 | 0.0 | 0.0 | 0.00 | 0.72 | 0.65 | 89 | 1023.7 | |
| 20260507171542 | 48 | 0 | 0.0 | 4.0 | 0.00 | 0.76 | 0.65 | 90 | 1023.5 |
| 20260507170540 | 48 | 353 | 0.0 | 2.0 | 0.00 | 0.76 | 0.65 | 90 | 1023.5 |
| 20260507165536 | 48 | 0.0 | 0.0 | 0.00 | 0.76 | 0.65 | 90 | 1023.5 | |
| 20260507164534 | 47 | 349 | 0.0 | 2.0 | 0.00 | 0.76 | 0.65 | 90 | 1023.5 |